Погода в Бело-Безводном

Россия / Республика Татарстан     55°55′32″N   48°45′49″E
темп.,
°C
ветер,
м/с
пор.,
м/с
влажн.,
%
обл.,
%
осадки,
мм/ч
давл.,
гПа
погр.,
м
6 мая, чт
чт600:00+3зюз3109175 0.0 1011218
03:00+5зюз278290 0.0 1012210
06:00+5ююз1281100 0.1 101357
09:00+10зюз357548 0.1 1015579
12:00+12юз357537 0.0 1015587
15:00+17зюз485227 0.2 10141745
18:00+15ююз4966100 0.0 1014271
21:00+11ююз388084 0.0 1015139
7 мая, пт
пт700:00+10ю31281100 0.0 1015234
03:00+9ю31184100 0.0 1015213
06:00+11ю51272100 0.0 1015366
09:00+15ююз71256100 0.0 1014884
12:00+15ююз71256100 0.0 10151362
15:00+16ююз7115796 0.6 10141720
18:00+11сз478597 1.2 1016389
21:00+9зсз1287100 1.4 101896
8 мая, сб
сб800:00+7ссз1190100 0.0 101911
03:00+6ссв229053 0.0 101917
06:00+9всв35835 0.0 1019208
09:00+12вюв457590 0.0 1018667
12:00+15ююв476922 0.0 10171035
15:00+16ю4759100 0.1 1016613
18:00+16ююв51064100 0.0 1014431
21:00+14юв41169100 0.0 1014221
9 мая, вс
вс900:00+14ююв5136433 0.0 1014413
03:00+12ююв61666100 0.0 1013410
06:00+13ююв51566100 0.0 1013518
09:00+14ююв61466100 0.0 1013646
12:00+16ююв61364100 0.1 1012704
15:00+16ю6870100 0.3 1013724
18:00+14юв3974100 0.1 1013233
21:00+13з2284100 0.8 101444
10 мая, пн
пн1000:00+11зсз4597100 0.6 1016175
03:00+9с4795100 1.3 1017223
06:00+10с3495100 0.6 1019212
09:00+12ссв5789100 1.1 1020390
12:00+16ссв5575100 0.0 1021692
15:00+16с6674100 0.1 1022641
18:00+13с598097 0.1 1024430
21:00+9ссв51186100 0.1 1025317